DW1814 Weather Reports


Display with metric or nautical units.
time (UTC)temp
F
wind
direction
speed
MPH
gust
MPH
rain 1hr
in
rain 24hr
in
rain mn
in
humidity
%
barometer
mb
20260904032422 75 56 0.0 2.0 0.00 0.16 0.16 89 1013.4
20260904031916 75 73 0.0 2.0 0.00 0.16 0.16 89 1013.2
20260904031411 75 66 0.0 1.0 0.00 0.16 0.16 89 1013.3
20260904030907 75 73 1.0 4.0 0.00 0.16 0.16 89 1013.4
20260904030402 75 44 0.0 2.0 0.00 0.16 0.16 89 1013.2
20260904025902 75 54 2.0 2.0 0.00 0.16 0.16 89 1013.3
20260904025359 75 62 0.0 2.0 0.00 0.16 0.16 89 1013.2
20260904024858 75 46 0.0 1.0 0.00 0.16 0.16 88 1013.4
20260904024353 75 351 0.0 1.0 0.00 0.16 0.16 88 1013.3
20260904023850 75 85 1.0 2.0 0.00 0.16 0.16 88 1013.5
20260904023346 76 81 1.0 2.0 0.00 0.16 0.16 87 1013.2
20260904022844 76 98 0.0 2.0 0.00 0.16 0.16 87 1013.2
20260904022342 76 69 1.0 2.0 0.00 0.16 0.16 87 1013.2
20260904021839 76 62 0.0 1.0 0.00 0.16 0.16 87 1013.2
20260904021338 76 110 0.0 0.0 0.00 0.16 0.16 87 1012.9
20260904020834 76 69 0.0 2.0 0.00 0.16 0.16 87 1013.1
20260904020329 76 40 0.0 2.0 0.00 0.16 0.16 88 1013.1
20260904015827 76 64 2.0 2.0 0.00 0.16 0.16 87 1013.0
20260904015323 76 19 2.0 3.0 0.00 0.16 0.16 87 1012.9
20260904014821 76 45 2.0 3.0 0.00 0.16 0.16 87 1012.8
20260904014317 76 56 0.0 2.0 0.00 0.16 0.16 86 1012.6
20260904013813 76 37 0.0 1.0 0.00 0.16 0.16 85 1012.6
20260904013309 76 37 0.0 0.0 0.00 0.16 0.16 85 1012.5
20260904012805 76 85 0.0 1.0 0.00 0.16 0.16 85 1012.5
20260904012306 77 76 0.0 1.0 0.00 0.16 0.16 85 1012.7
20260904011804 77 30 1.0 2.0 0.00 0.16 0.16 84 1012.8
20260904011259 77 53 2.0 2.0 0.00 0.16 0.16 84 1012.5
20260904010759 77 80 0.0 0.0 0.00 0.16 0.16 82 1012.5
20260904010257 77 33 0.0 1.0 0.00 0.16 0.16 83 1012.3
20260904005757 78 16 0.0 1.0 0.00 0.16 0.16 83 1012.5
20260904005253 78 27 1.0 2.0 0.00 0.16 0.16 82 1012.2
20260904004747 79 49 1.0 1.0 0.00 0.16 0.16 80 1012.2
20260904004243 79 22 0.0 1.0 0.00 0.16 0.16 79 1011.8
20260904003738 80 48 1.0 2.0 0.00 0.16 0.16 78 1011.8
20260904003234 80 58 1.0 1.0 0.00 0.16 0.16 75 1011.7
20260904002729 81 50 1.0 1.0 0.00 0.16 0.16 75 1011.4
20260904002226 81 17 0.0 0.0 0.00 0.16 0.16 73 1011.5
20260904001720 82 334 1.0 1.0 0.00 0.16 0.16 72 1011.5
20260904001219 82 89 3.0 3.0 0.00 0.16 0.16 72 1011.3
20260904000715 82 67 1.0 2.0 0.00 0.16 0.16 74 1011.4
20260904000211 83 315 0.0 2.0 0.00 0.16 0.16 72 1011.5
20260903235709 83 94 1.0 2.0 0.00 0.16 0.16 71 1011.6
20260903235206 84 341 1.0 3.0 0.00 0.16 0.16 71 1011.7
20260903234659 84 76 0.0 0.0 0.00 0.16 0.16 70 1011.6
20260903234156 84 34 2.0 2.0 0.00 0.16 0.16 69 1011.8
20260903233652 84 205 0.0 2.0 0.00 0.16 0.16 68 1011.3
20260903233148 85 22 0.0 1.0 0.00 0.16 0.16 67 1011.4
20260903232647 85 13 0.0 2.0 0.00 0.16 0.16 67 1011.4
20260903232143 85 10 0.0 1.0 0.00 0.16 0.16 67 1011.6
20260903231642 85 339 0.0 2.0 0.00 0.16 0.16 67 1011.7
20260903231137 86 235 0.0 1.0 0.00 0.16 0.16 67 1011.6
20260903230633 86 39 1.0 1.0 0.00 0.16 0.16 71 1011.7
20260903230132 86 305 0.0 1.0 0.00 0.16 0.16 71 1011.6
20260903225629 86 326 0.0 1.0 0.00 0.16 0.16 72 1011.7
20260903225125 86 6 0.0 1.0 0.00 0.16 0.16 72 1011.6
20260903224621 86 310 0.0 1.0 0.00 0.16 0.16 72 1011.8
20260903224117 87 355 0.0 2.0 0.00 0.16 0.16 71 1011.8
20260903223612 87 214 0.0 3.0 0.00 0.16 0.16 70 1012.0
20260903223110 87 81 0.0 2.0 0.00 0.16 0.16 69 1011.8
20260903222606 87 22 0.0 0.0 0.00 0.16 0.16 68 1011.7
20260903222104 87 322 0.0 0.0 0.00 0.16 0.16 70 1011.7
20260903221600 87 235 0.0 0.0 0.00 0.16 0.16 70 1011.8
20260903221058 87 295 1.0 2.0 0.00 0.16 0.16 69 1012.0
20260903220557 87 309 0.0 0.0 0.00 0.16 0.16 71 1012.0
20260903220056 87 309 0.0 0.0 0.00 0.16 0.16 70 1012.0
20260903215555 87 279 0.0 1.0 0.00 0.16 0.16 71 1012.3
20260903215050 87 306 1.0 2.0 0.00 0.16 0.16 71 1012.2
20260903214549 86 329 0.0 3.0 0.00 0.16 0.16 72 1012.2
20260903214044 86 4 2.0 2.0 0.00 0.16 0.16 72 1012.2
20260903213540 87 348 2.0 2.0 0.00 0.16 0.16 72 1012.2
20260903213035 87 299 0.0 2.0 0.00 0.16 0.16 70 1012.2
20260903212531 87 116 0.0 2.0 0.00 0.16 0.16 69 1012.2
20260903212026 86 32 0.0 2.0 0.00 0.16 0.16 70 1012.2
20260903211521 86 343 1.0 3.0 0.00 0.16 0.16 72 1012.3
20260903211018 85 333 0.0 1.0 0.00 0.16 0.16 73 1012.2
20260903210519 85 336 0.0 0.0 0.00 0.16 0.16 71 1012.4
20260903210015 85 338 1.0 2.0 0.00 0.16 0.16 71 1012.3
20260903205514 85 281 0.0 2.0 0.00 0.16 0.16 71 1012.3
20260903205008 85 322 1.0 3.0 0.00 0.16 0.16 72 1012.6
20260903204504 85 76 0.0 2.0 0.00 0.16 0.16 74 1012.3
20260903203959 84 91 2.0 5.0 0.00 0.16 0.16 71 1012.3
20260903203455 84 82 0.0 8.0 0.00 0.16 0.16 73 1012.6
20260903202954 85 29 1.0 2.0 0.00 0.16 0.16 74 1012.6
20260903202451 84 25 2.0 3.0 0.00 0.16 0.16 72 1012.8
20260903201951 84 12 3.0 3.0 0.00 0.16 0.16 74 1012.6
20260903201446 84 40 2.0 3.0 0.00 0.16 0.16 74 1012.9
20260903200944 84 69 2.0 2.0 0.00 0.16 0.16 73 1012.8
20260903200440 84 12 0.0 4.0 0.00 0.16 0.16 74 1013.0
20260903195935 84 338 1.0 3.0 0.00 0.16 0.16 74 1012.9
20260903195431 84 350 2.0 3.0 0.00 0.16 0.16 71 1013.1
20260903194926 84 351 0.0 4.0 0.00 0.16 0.16 72 1013.3
20260903194421 84 299 2.0 4.0 0.00 0.16 0.16 72 1012.9
20260903193916 84 306 0.0 1.0 0.00 0.16 0.16 73 1012.9
20260903193413 84 289 2.0 2.0 0.00 0.16 0.16 74 1012.9
20260903192907 83 11 0.0 1.0 0.00 0.16 0.16 77 1013.0
20260903192404 82 284 1.0 1.0 0.00 0.16 0.16 77 1012.9
20260903191900 83 256 0.0 0.0 0.00 0.16 0.16 76 1012.9
20260903191356 83 291 0.0 3.0 0.00 0.16 0.16 75 1013.1
20260903190855 84 164 1.0 3.0 0.00 0.16 0.16 73 1013.0
20260903190349 83 110 0.0 2.0 0.00 0.16 0.16 73 1013.0
20260903185849 83 180 0.0 1.0 0.00 0.16 0.16 75 1013.1
20260903185344 83 42 1.0 4.0 0.00 0.16 0.16 75 1012.9
20260903184840 83 83 2.0 2.0 0.00 0.16 0.16 76 1013.1
20260903184337 82 343 0.0 0.0 0.00 0.16 0.16 75 1013.2
20260903183832 82 58 2.0 2.0 0.00 0.16 0.16 76 1013.3
20260903183332 81 193 0.0 2.0 0.00 0.16 0.16 84 1013.4
20260903182831 80 325 0.0 3.0 0.00 0.16 0.16 79 1013.4
20260903182330 79 164 0.0 1.0 0.00 0.16 0.16 80 1013.2
20260903181825 79 339 0.0 2.0 0.00 0.16 0.16 79 1013.7
20260903181320 79 333 0.0 0.0 0.00 0.16 0.16 82 1013.6
20260903180820 78 8 1.0 4.0 0.00 0.16 0.16 81 1013.7
20260903180320 78 65 2.0 2.0 0.00 0.16 0.16 82 1013.7
20260903175819 78 166 0.0 2.0 0.00 0.16 0.16 83 1013.7
20260903175318 78 11 3.0 4.0 0.00 0.16 0.16 83 1014.1
20260903174814 78 3 2.0 5.0 0.00 0.16 0.16 82 1014.2
20260903174309 77 55 0.0 2.0 0.00 0.16 0.16 87 1014.1
20260903173808 77 37 0.0 3.0 0.00 0.16 0.16 85 1014.0
20260903173304 77 335 2.0 4.0 0.00 0.16 0.16 84 1014.4
20260903172800 77 311 2.0 4.0 0.00 0.16 0.16 85 1014.2
20260903172254 77 281 1.0 3.0 0.00 0.16 0.16 84 1014.5
20260903171749 77 26 0.0 4.0 0.00 0.16 0.16 86 1014.3
20260903171245 77 345 2.0 3.0 0.00 0.16 0.16 89 1014.4
20260903170744 75 7 0.0 5.0 0.00 0.16 0.16 90 1014.7
20260903170240 75 331 1.0 2.0 0.00 0.16 0.16 94 1014.4
20260903165738 74 63 7.0 7.0 0.00 0.16 0.16 94 1014.5
20260903165233 74 321 1.0 4.0 0.00 0.16 0.16 93 1014.9
20260903164733 74 328 2.0 6.0 0.00 0.16 0.16 93 1015.0
20260903164229 74 11 3.0 4.0 0.00 0.16 0.16 94 1015.0
20260903163728 74 340 2.0 4.0 0.00 0.16 0.16 93 1015.1
20260903163225 74 305 4.0 4.0 0.00 0.16 0.16 93 1015.1
20260903162721 75 7 3.0 5.0 0.00 0.16 0.16 92 1015.0
20260903162217 75 307 5.0 6.0 0.00 0.16 0.16 91 1014.9
20260903161712 75 337 3.0 7.0 0.00 0.16 0.16 91 1015.0
20260903161208 75 341 3.0 4.0 0.00 0.16 0.16 93 1014.9
20260903160703 75 349 2.0 2.0 0.00 0.16 0.16 93 1014.8
20260903160156 75 49 0.0 2.0 0.07 0.16 0.16 92 1014.9
20260903155655 75 352 5.0 6.0 0.26 0.16 0.16 90 1014.6
20260903155150 76 32 3.0 6.0 0.24 0.14 0.14 89 1014.7
20260903154646 77 29 4.0 9.0 0.00 0.10 0.10 87 1014.7
20260903154142 77 291 6.0 6.0 0.00 0.10 0.10 90 1014.5
20260903153638 77 316 4.0 5.0 0.09 0.10 0.10 89 1014.3
20260903153133 78 308 3.0 6.0 0.47 0.10 0.10 86 1014.4
20260903152629 80 24 7.0 10.0 0.47 0.08 0.08 84 1014.2
20260903152126 82 316 4.0 9.0 0.00 0.00 0.00 78 1014.1
20260903151624 83 21 6.0 8.0 0.00 0.00 0.00 75 1014.0
20260903151120 84 13 5.0 5.0 0.00 0.00 0.00 77 1013.9
20260903150620 85 343 1.0 2.0 0.00 0.00 0.00 75 1013.4
20260903150115 85 43 0.0 1.0 0.00 0.00 0.00 74 1013.5
20260903145614 85 339 1.0 2.0 0.00 0.00 0.00 72 1013.0
20260903145109 85 37 0.0 2.0 0.00 0.00 0.00 76 1013.0
20260903144608 85 346 0.0 1.0 0.00 0.00 0.00 73 1013.0
20260903144105 85 22 0.0 1.0 0.00 0.00 0.00 74 1013.0
20260903143601 85 283 0.0 1.0 0.00 0.00 0.00 72 1012.9
20260903143056 85 2 0.0 0.0 0.00 0.00 0.00 72 1013.0
20260903142551 85 25 0.0 0.0 0.00 0.00 0.00 72 1013.0
20260903142048 85 287 2.0 3.0 0.00 0.00 0.00 72 1013.1
20260903141543 85 269 0.0 0.0 0.00 0.00 0.00 71 1012.9
20260903141038 85 22 0.0 0.0 0.00 0.00 0.00 70 1012.8
20260903140534 86 304 0.0 1.0 0.00 0.00 0.00 69 1012.8
20260903140035 86 242 0.0 5.0 0.00 0.00 0.00 70 1012.9
20260903135530 86 291 3.0 5.0 0.00 0.00 0.00 69 1012.8
20260903135025 85 269 0.0 1.0 0.00 0.00 0.00 72 1012.7
20260903134524 85 333 0.0 0.0 0.00 0.00 0.00 75 1012.9
20260903134020 84 343 0.0 1.0 0.00 0.00 0.00 76 1012.9
20260903133518 83 304 0.0 0.0 0.00 0.00 0.00 76 1012.8
20260903133013 82 243 0.0 0.0 0.00 0.00 0.00 76 1012.8
20260903132508 82 95 0.0 0.0 0.00 0.00 0.00 78 1012.8
20260903132003 82 145 0.0 1.0 0.00 0.00 0.00 79 1012.5
20260903131458 82 341 0.0 1.0 0.00 0.00 0.00 79 1012.8
20260903130956 82 120 0.0 1.0 0.00 0.00 0.00 78 1012.7
20260903130452 82 41 0.0 1.0 0.00 0.00 0.00 79 1012.6
20260903125950 81 55 0.0 1.0 0.00 0.00 0.00 81 1012.7
20260903125445 79 32 0.0 1.0 0.00 0.00 0.00 84 1013.0
20260903124944 78 129 0.0 1.0 0.00 0.00 0.00 86 1013.0
20260903124440 77 89 0.0 1.0 0.00 0.00 0.00 88 1012.8
20260903123938 77 67 0.0 2.0 0.00 0.00 0.00 89 1012.9
20260903123433 77 32 0.0 2.0 0.00 0.00 0.00 89 1013.0
20260903122932 76 57 0.0 1.0 0.00 0.00 0.00 90 1013.0
20260903122426 76 28 0.0 1.0 0.00 0.00 0.00 90 1012.9
20260903121925 76 113 0.0 1.0 0.00 0.00 0.00 91 1012.9
20260903121420 76 89 0.0 2.0 0.00 0.00 0.00 91 1012.9
20260903120917 75 51 3.0 3.0 0.00 0.00 0.00 92 1012.9
20260903120415 75 53 2.0 2.0 0.00 0.00 0.00 92 1012.8
20260903115914 75 68 1.0 2.0 0.00 0.00 0.00 92 1013.0
20260903115409 75 89 0.0 1.0 0.00 0.00 0.00 92 1013.1
20260903114909 75 55 0.0 2.0 0.00 0.00 0.00 92 1013.1
20260903114405 75 76 0.0 1.0 0.00 0.00 0.00 93 1013.1
20260903113900 75 131 0.0 2.0 0.00 0.00 0.00 92 1013.0
20260903113356 75 129 0.0 2.0 0.00 0.00 0.00 92 1013.1
20260903112851 75 33 2.0 2.0 0.00 0.00 0.00 92 1012.9
20260903112347 75 69 1.0 2.0 0.00 0.00 0.00 92 1012.9
20260903111846 75 65 0.0 1.0 0.00 0.00 0.00 92 1013.0
20260903111345 75 169 1.0 1.0 0.00 0.00 0.00 93 1012.9
20260903110842 75 110 1.0 2.0 0.00 0.00 0.00 93 1012.6
20260903110337 75 53 0.0 2.0 0.00 0.00 0.00 93 1012.8
20260903105832 75 76 0.0 2.0 0.00 0.00 0.00 94 1013.0
20260903105327 75 151 0.0 1.0 0.00 0.00 0.00 94 1013.0
20260903104826 75 78 1.0 2.0 0.00 0.00 0.00 94 1012.8
20260903104321 75 70 1.0 2.0 0.00 0.00 0.00 94 1012.6
20260903103818 75 71 1.0 2.0 0.00 0.00 0.00 94 1012.8
20260903103314 75 58 1.0 2.0 0.00 0.00 0.00 94 1012.8
20260903102810 75 143 1.0 1.0 0.00 0.00 0.00 95 1012.7
20260903102309 75 53 0.0 1.0 0.00 0.00 0.00 95 1012.5
20260903101809 75 95 0.0 1.0 0.00 0.00 0.00 95 1012.7
20260903101304 75 57 1.0 2.0 0.00 0.00 0.00 94 1012.7
20260903100800 75 64 1.0 2.0 0.00 0.00 0.00 94 1012.7
20260903100300 75 76 1.0 2.0 0.00 0.00 0.00 94 1012.9
20260903095757 75 62 2.0 2.0 0.00 0.00 0.00 94 1012.8
20260903095251 75 52 1.0 2.0 0.00 0.00 0.00 94 1012.8
20260903094747 75 69 1.0 1.0 0.00 0.00 0.00 94 1012.8
20260903094242 75 78 1.0 1.0 0.00 0.00 0.00 94 1012.7
20260903093737 75 71 2.0 2.0 0.00 0.00 0.00 94 1012.8
20260903093232 75 79 1.0 2.0 0.00 0.00 0.00 94 1012.9
20260903092732 75 76 0.0 1.0 0.00 0.00 0.00 93 1012.8
20260903092227 76 49 1.0 2.0 0.00 0.00 0.00 93 1012.9
20260903091726 76 59 2.0 2.0 0.00 0.00 0.00 93 1012.9
20260903091220 76 68 1.0 2.0 0.00 0.00 0.00 93 1012.9
20260903090716 76 67 1.0 2.0 0.00 0.00 0.00 92 1012.7
20260903090214 76 64 1.0 2.0 0.00 0.00 0.00 92 1012.6
20260903085714 76 57 0.0 2.0 0.00 0.00 0.00 92 1012.7
20260903085209 76 63 2.0 2.0 0.00 0.00 0.00 92 1012.7
20260903084706 76 93 0.0 1.0 0.00 0.00 0.00 92 1012.8
20260903084201 76 29 2.0 3.0 0.00 0.00 0.00 92 1013.0
20260903083658 76 72 1.0 1.0 0.00 0.00 0.00 92 1012.7
20260903083157 76 59 1.0 2.0 0.00 0.00 0.00 91 1012.6
20260903082651 77 59 0.0 1.0 0.00 0.00 0.00 91 1012.7
20260903082148 77 56 1.0 2.0 0.00 0.00 0.00 91 1012.9
20260903081642 77 38 1.0 2.0 0.00 0.00 0.00 90 1012.6
20260903081138 77 57 1.0 2.0 0.00 0.00 0.00 89 1012.8
20260903080634 78 60 1.0 1.0 0.00 0.00 0.00 88 1012.6
20260903080132 78 78 1.0 1.0 0.00 0.00 0.00 88 1012.6
20260903075630 78 84 1.0 1.0 0.00 0.00 0.00 88 1012.5
20260903075126 78 70 1.0 1.0 0.00 0.00 0.00 88 1012.5
20260903074625 78 86 1.0 1.0 0.00 0.00 0.00 89 1012.5
20260903074126 77 62 0.0 1.0 0.00 0.00 0.00 89 1012.5
20260903073621 77 71 0.0 1.0 0.00 0.00 0.00 89 1012.3
20260903073116 77 59 1.0 1.0 0.00 0.00 0.00 89 1012.5
20260903072612 77 96 1.0 1.0 0.00 0.00 0.00 89 1012.5
20260903072108 77 81 0.0 1.0 0.00 0.00 0.00 90 1012.5
20260903071605 77 65 0.0 1.0 0.00 0.00 0.00 90 1012.4
20260903071105 78 67 1.0 1.0 0.00 0.00 0.00 90 1012.7
20260903070605 78 36 1.0 1.0 0.00 0.00 0.00 89 1012.7
20260903070101 78 75 0.0 1.0 0.00 0.00 0.00 89 1012.5
20260903065559 78 53 0.0 1.0 0.00 0.00 0.00 89 1012.6
20260903065055 78 67 0.0 1.0 0.00 0.00 0.00 89 1012.7
20260903064554 78 71 1.0 1.0 0.00 0.00 0.00 88 1012.5
20260903064049 78 89 0.0 1.0 0.00 0.00 0.00 88 1012.6
20260903063545 78 50 1.0 1.0 0.00 0.00 0.00 87 1012.6
20260903063040 79 40 0.0 1.0 0.00 0.00 0.00 87 1012.8
20260903062535 79 62 0.0 1.0 0.00 0.00 0.00 87 1012.9
20260903062031 79 69 0.0 1.0 0.00 0.00 0.00 87 1012.6
20260903061526 79 62 0.0 0.0 0.00 0.00 0.00 87 1012.8
20260903061026 79 47 0.0 1.0 0.00 0.00 0.00 87 1012.6
20260903060526 79 75 0.0 1.0 0.00 0.00 0.00 87 1012.7
20260903060021 79 62 0.0 1.0 0.00 0.00 0.00 87 1012.7
20260903055518 79 44 0.0 1.0 0.00 0.00 0.00 87 1012.8
20260903055017 79 62 0.0 1.0 0.00 0.00 0.00 87 1013.0
20260903054512 79 37 0.0 1.0 0.00 0.00 0.00 87 1012.8
20260903054009 79 63 0.0 0.0 0.00 0.00 0.00 87 1012.8
20260903053508 80 37 0.0 1.0 0.00 0.00 0.00 87 1012.8
20260903053005 80 72 1.0 2.0 0.00 0.00 0.00 87 1012.6
20260903052500 80 75 0.0 1.0 0.00 0.00 0.00 86 1012.6
20260903051956 80 89 0.0 1.0 0.00 0.00 0.00 86 1012.8
20260903051450 80 31 0.0 1.0 0.00 0.00 0.00 87 1012.9
20260903050946 80 55 0.0 0.0 0.00 0.00 0.00 86 1012.7
20260903050445 80 37 0.0 1.0 0.00 0.00 0.00 86 1012.7
20260903045940 80 45 0.0 0.0 0.00 0.00 0.00 86 1012.9
20260903045436 80 180 0.0 0.0 0.00 0.00 0.00 86 1012.6
20260903044932 80 189 0.0 1.0 0.00 0.00 0.00 86 1012.4
20260903044432 80 104 0.0 1.0 0.00 0.00 0.00 87 1012.5
20260903043929 80 135 0.0 1.0 0.00 0.00 0.00 87 1012.6
20260903043424 79 50 0.0 0.0 0.00 0.00 0.00 88 1012.7
20260903042922 79 37 0.0 0.0 0.00 0.00 0.00 88 1012.6
20260903042418 80 50 0.0 0.0 0.00 0.00 0.00 87 1012.6
20260903041914 80 37 0.0 0.0 0.00 0.00 0.00 87 1012.6
20260903041410 80 135 0.0 1.0 0.00 0.00 0.00 87 1012.5
20260903040906 80 89 0.0 1.0 0.00 0.00 0.00 87 1012.6
20260903040404 80 135 0.0 0.0 0.00 0.00 0.00 87 1012.6
20260903035901 80 15 0.0 0.0 0.00 0.00 0.00 86 1012.6
20260903035356 80 124 0.0 1.0 0.00 0.00 0.00 86 1012.5
20260903034851 80 66 0.0 0.0 0.00 0.00 0.00 86 1012.5
20260903034346 80 113 0.0 1.0 0.00 0.00 0.00 87 1012.7
20260903033842 80 55 0.0 1.0 0.00 0.00 0.00 87 1012.6
20260903033337 80 77 0.0 1.0 0.00 0.00 0.00 87 1012.5
20260903032836 80 55 0.0 1.0 0.00 0.00 0.00 87 1012.5